Flag for Germany Weather past 2 weeks in Meiningen, Thuringia, Germany

Now
49 °F

Scattered clouds.


Feels Like: 49 °F
Forecast: 38 / 58 °F
Wind: 1 mph from Northwest

Location: Meiningen

Current Time: Sep 23, 2014 at 7:27:24 PM

Latest Report: Sep 23, 2014 at 7:00 PM


Visibility: 25 mi

Pressure: 30.11 "Hg

Humidity: 73%

Dew point: 41 °F

Location of MeiningenLocation

Historic Weather in Meiningen — Graph

°F

Meiningen temperature yesterday

Maximum temperature yesterday: 51 °F (at 12:00 PM)
Minimum temperature yesterday: 44 °F (at 3:00 PM)
Average temperature yesterday: 49 °F

Past Weeks' High & Low Weather Summary

 TemperatureHumidityPressure
High71 °F (Sep 17, 4:00 PM)99% (Sep 20, 4:00 AM)30.19 "Hg (Sep 20, 4:00 AM)
Low44 °F (Sep 22, 3:00 PM)53% (Sep 17, 5:00 PM)29.88 "Hg (Sep 17, 6:00 PM)
Average57 °F86%30.02 "Hg
* Reported Sep 8 6:00 PM — Sep 23 6:00 PM, Meiningen, Weather by CustomWeather, © 2014

Note: Actual official high and low records may vary slightly from our data, if they occured in-between our weather recording intervals... More about our weather records

Advertising

Meiningen weather history for previous 24 hours

 ConditionsComfort  
Time TempWeatherWind HumidityBarometerVisibility
6:00 PM
Sep 23
53 °FScattered clouds.3 mph58%30.10 "Hg28 mi
4:00 PM53 °FPartly sunny.3 mph62%30.13 "Hg28 mi
3:00 PM52 °FPartly sunny.2 mph62%30.16 "Hg28 mi
2:00 PM52 °FOvercast.2 mph61%30.16 "Hg28 mi
1:00 PM51 °FOvercast.3 mph63%30.18 "Hg22 mi
12:00 PM51 °FOvercast.5 mph63%30.17 "Hg17 mi
11:00 AM49 °FOvercast.2 mph73%30.19 "Hg16 mi
10:00 AM50 °FOvercast.2 mph74%30.18 "Hg12 mi
9:00 AM48 °FOvercast.1 mph76%30.16 "Hg12 mi
8:00 AM47 °FOvercast.1 mph81%30.16 "Hg12 mi
7:00 AM47 °FOvercast.2 mph85%30.14 "Hg11 mi
6:00 AM47 °FOvercast.2 mph84%30.13 "Hg16 mi
5:00 AM47 °FOvercast.3 mph81%30.11 "Hg22 mi
4:00 AM47 °FOvercast.3 mph78%30.11 "Hg25 mi
3:00 AM47 °FOvercast.3 mph79%30.11 "Hg22 mi
2:00 AM47 °FOvercast.5 mph77%30.11 "Hg22 mi
1:00 AM48 °FOvercast.6 mph76%30.10 "Hg19 mi
12:00 AM49 °FOvercast.7 mph77%30.10 "Hg19 mi
10:00 PM
Sep 22
49 °FOvercast.5 mph80%30.08 "Hg19 mi
9:00 PM49 °FOvercast.7 mph78%30.07 "Hg17 mi
8:00 PM48 °FSprinkles. Passing clouds.5 mph80%30.06 "Hg14 mi
7:00 PM48 °FOvercast.5 mph79%30.05 "Hg19 mi
Weather by CustomWeather, © 2014

See weather overviewHow to use our weather pages